Location: Little Lepreau Basin
(45.1272°N, 66.4616°W)
Time: 06:53:51
(UTC-03:00)

ISS - Visible Passes

Search period start: 23 April 2019 00:00
Search period end: 03 May 2019 00:00
Orbit: 408 x 410 km, 51.6° (Epoch: 23 April)

Date Brightness Start Highest point End Pass type
(mag) Time Alt. Az. Time Alt. Az. Time Alt. Az.
30 Apr -1.7 04:57:37 12° S 04:59:47 20° SE 05:02:16 10° E visible
01 May -1.2 04:08:47 11° SE 04:09:07 12° SE 04:10:18 10° ESE visible
01 May -3.7 05:41:53 10° SW 05:45:11 77° SSE 05:48:30 10° ENE visible
02 May -3.1 04:52:36 22° SSW 04:54:21 44° SE 04:57:32 10° ENE visible
